Weather History for EIME - November, 2013

Change the Weather History Date:

Wednesday, November 6, 2013

  Actual Average (EIDW) Record (EIDW)
Temperature  
Mean Temperature 44 °F -  
Max Temperature 48 °F 47 °F 59 °F (2014)
Min Temperature 41 °F 37 °F 32 °F (2011)
Degree Days  
Heating Degree Days 20    
Moisture  
Dew Point 44 °F    
Average Humidity 93    
Maximum Humidity 100    
Minimum Humidity 87    
Precipitation  
Precipitation 0.08 in - - ()
Sea Level Pressure  
Sea Level Pressure 29.42 in    
Wind  
Wind Speed 11 mph ()    
Max Wind Speed 18 mph    
Max Gust Speed -    
Visibility 6.8 miles    
Events Rain    
Averages and records for this station are not official NWS values.
T = Trace of Precipitation, MM = Missing Value Source: Averaged Metar Reports

Daily Weather History Graph

Daily Weather History Graph

Search for Another Location

Airport or City:

Trip Planner

Search our weather history database for the weather conditions in past years. The results will help you decide how hot, cold, wet, or windy it might be!

Date:

Astronomy

Nov. 06, 2013 Rise Set
Actual Time 7:33 AM GMT 4:44 PM GMT
Civil Twilight 6:56 AM GMT 5:21 PM GMT
Nautical Twilight 6:14 AM GMT 6:03 PM GMT
Astronomical Twilight 5:34 AM GMT 6:43 PM GMT
Moon 10:48 AM GMT (11/6) 7:20 PM GMT (11/6)
Length of Visible Light 10h 25m
Length of Day
9h 10m
Waxing Crescent, 12% of the Moon is Illuminated
Nov 6
Waxing Crescent
Nov 10
First Quarter
Nov 17
Full
Nov 25
Last Quarter
Dec 3
New

Hourly Weather History & Observations

Time (GMT) Temp. Windchill Dew Point Humidity Pressure Visibility Wind Dir Wind Speed Gust Speed Precip Events Conditions
12:00 AM 45 °F - 42 °F 87% 29.43 in 12 mi SW 15.7 mph - -   Partly Cloudy
12:00 AM 44.6 °F 37.8 °F 42.8 °F 93% 29.42 in 6.2 mi SW 15.0 mph - N/A   Mostly Cloudy
1:00 AM 44.6 °F 38.4 °F 42.8 °F 93% 29.42 in 6.2 mi SW 12.7 mph - N/A   Mostly Cloudy
2:00 AM 44.6 °F 38.8 °F 42.8 °F 93% 29.42 in 6.2 mi SW 11.5 mph - N/A   Mostly Cloudy
3:00 AM 44.6 °F 38.4 °F 42.8 °F 93% 29.42 in 6.2 mi SSW 12.7 mph - N/A   Mostly Cloudy
4:00 AM 44.6 °F 38.1 °F 42.8 °F 93% 29.42 in 6.2 mi SSW 13.8 mph - N/A Rain Light Rain
5:00 AM 44.6 °F 38.1 °F 42.8 °F 93% 29.42 in 6.2 mi SW 13.8 mph - N/A Rain Light Rain
6:00 AM 45 °F - 44 °F 93% 29.43 in 16 mi SSW 13.4 mph - - Rain Light Rain
6:00 AM 44.6 °F 38.1 °F 42.8 °F 93% 29.42 in 6.2 mi SSW 13.8 mph - N/A   Mostly Cloudy
7:00 AM 44.6 °F 38.8 °F 42.8 °F 93% 29.42 in 6.2 mi SW 11.5 mph - N/A   Mostly Cloudy
8:00 AM 46.4 °F 41.1 °F 44.6 °F 93% 29.42 in 6.2 mi SW 11.5 mph - N/A Rain Light Rain
8:30 AM 46.4 °F 41.1 °F 44.6 °F 93% 29.42 in 6.2 mi SW 11.5 mph - N/A   Mostly Cloudy
9:00 AM 46.4 °F 40.7 °F 44.6 °F 93% 29.42 in 6.2 mi SW 12.7 mph - N/A   Mostly Cloudy
9:30 AM 46.4 °F 40.7 °F 44.6 °F 93% 29.42 in 6.2 mi SW 12.7 mph - N/A Rain Light Rain Showers
10:00 AM 46.4 °F 41.1 °F 44.6 °F 93% 29.42 in 6.2 mi SSW 11.5 mph - N/A Rain Light Rain
10:30 AM 48.2 °F - 44.6 °F 87% 29.42 in 6.2 mi SW 9.2 mph - N/A Rain Light Rain
11:00 AM 48.2 °F - 44.6 °F 87% 29.42 in 6.2 mi SW 12.7 mph - N/A   Overcast
11:30 AM 48.2 °F - 46.4 °F 93% 29.42 in 6.2 mi SW 10.4 mph - N/A   Light Drizzle
12:00 PM 48 °F - 46 °F 89% 29.43 in 22 mi SW 8.9 mph - - Rain Light Rain
12:00 PM 48.2 °F - 46.4 °F 93% 29.39 in 6.2 mi SSW 10.4 mph - N/A Rain Light Rain
12:30 PM 48.2 °F - 46.4 °F 93% 29.39 in 6.2 mi SW 9.2 mph - N/A   Light Drizzle
1:00 PM 48.2 °F - 46.4 °F 93% 29.39 in 6.2 mi SW 9.2 mph - N/A Rain Light Rain
1:30 PM 48.2 °F - 46.4 °F 93% 29.39 in 6.2 mi SSW 10.4 mph - N/A   Light Drizzle
2:00 PM 48.2 °F - 46.4 °F 93% 29.39 in 6.2 mi SW 8.1 mph - N/A Rain Light Rain
2:30 PM 48.2 °F - 46.4 °F 93% 29.36 in 6.2 mi SW 8.1 mph - N/A Rain Light Rain
3:00 PM 48.2 °F - 46.4 °F 93% 29.36 in 6.2 mi SW 8.1 mph - N/A   Light Drizzle
3:30 PM 48.2 °F - 46.4 °F 93% 29.36 in 6.2 mi West 18.4 mph - N/A Rain Light Rain
4:00 PM 44.6 °F 40.7 °F 44.6 °F 100% 29.36 in 2.5 mi West 6.9 mph - N/A   Light Drizzle
4:30 PM 44.6 °F 38.8 °F 44.6 °F 100% 29.39 in 1.9 mi West 11.5 mph - N/A Rain Light Rain
5:00 PM 44.6 °F 40.7 °F 42.8 °F 93% 29.39 in 6.2 mi WSW 6.9 mph - N/A Rain Light Rain
6:00 PM 44 °F - 43 °F 96% 29.42 in 19 mi WSW 8.9 mph - - Rain Light Rain
6:00 PM 44.6 °F 40.2 °F 42.8 °F 93% 29.42 in 6.2 mi WSW 8.1 mph - N/A   Mostly Cloudy
7:00 PM 44.6 °F 38.8 °F 42.8 °F 93% 29.44 in 6.2 mi WSW 11.5 mph - N/A   Mostly Cloudy
8:00 PM 44.6 °F 38.8 °F 42.8 °F 93% 29.44 in 6.2 mi WSW 11.5 mph - N/A   Mostly Cloudy
9:00 PM 42.8 °F 36.2 °F 41.0 °F 93% 29.47 in 6.2 mi SW 12.7 mph - N/A   Scattered Clouds
10:00 PM 41.0 °F 33.5 °F 41.0 °F 100% 29.50 in 6.2 mi SW 13.8 mph - N/A   Scattered Clouds
11:00 PM 41.0 °F 34.3 °F 39.2 °F 93% 29.53 in 6.2 mi SW 11.5 mph - N/A   Partly Cloudy